Window Rock, AZ

10:23 AM MST on December 08, 2016 (GMT -0700)
Window Rock

Weather History for KRQE - June, 2012

Change the Weather History Date:

Wednesday, June 13, 2012

  Actual Average Record
Temperature  
Mean Temperature 62 °F -  
Max Temperature 86 °F 79 °F 92 °F (1939)
Min Temperature 39 °F 46 °F 33 °F (2001)
Degree Days  
Heating Degree Days 2    
Growing Degree Days 12 (Base 50)    
Moisture  
Dew Point 5 °F    
Average Humidity 11    
Maximum Humidity 27    
Minimum Humidity 4    
Precipitation  
Precipitation 0.00 in - - ()
Sea Level Pressure  
Sea Level Pressure 29.75 in    
Wind  
Wind Speed 5 mph (SW)    
Max Wind Speed 16 mph    
Max Gust Speed 26 mph    
Visibility 10 miles    
Events      
Averages and records for this station are not official NWS values.
T = Trace of Precipitation, MM = Missing Value Source: NWS Daily Summary

Daily Weather History Graph

Daily Weather History Graph

Search for Another Location

Airport or City:

Trip Planner

Search our weather history database for the weather conditions in past years. The results will help you decide how hot, cold, wet, or windy it might be!

Date:

Astronomy

Jun. 13, 2012 Rise Set
Actual Time 5:59 AM MDT 8:33 PM MDT
Civil Twilight 5:29 AM MDT 9:03 PM MDT
Nautical Twilight 4:52 AM MDT 9:40 PM MDT
Astronomical Twilight 4:11 AM MDT 10:21 PM MDT
Moon 2:06 AM MDT (6/13) 3:29 PM MDT (6/13)
Length of Visible Light 15h 33m
Length of Day
14h 33m
Waning Crescent, 28% of the Moon is Illuminated
Jun 13
Waning Crescent
Jun 19
New
Jun 26
First Quarter
Jul 3
Full
Jul 10
Last Quarter

Hourly Weather History & Observations

Time (MDT) Temp. Dew Point Humidity Pressure Visibility Wind Dir Wind Speed Gust Speed Precip Events Conditions
12:53 AM 44.1 °F 3.0 °F 18% 29.85 in 10.0 mi Calm Calm - N/A   Clear
1:53 AM 52.0 °F 3.0 °F 14% 29.81 in 10.0 mi NNE 3.5 mph - N/A   Clear
2:53 AM 48.9 °F 5.0 °F 17% 29.81 in 10.0 mi Calm Calm - N/A   Clear
3:53 AM 44.1 °F 7.0 °F 22% 29.81 in 10.0 mi Calm Calm - N/A   Clear
4:53 AM 41.0 °F 9.0 °F 27% 29.83 in 10.0 mi Calm Calm - N/A   Clear
5:53 AM 39.9 °F 8.1 °F 27% 29.85 in 10.0 mi Calm Calm - N/A   Clear
6:53 AM 43.0 °F 10.0 °F 26% 29.84 in 10.0 mi Calm Calm - N/A   Clear
7:53 AM 53.1 °F 10.0 °F 18% 29.82 in 10.0 mi Calm Calm - N/A   Clear
8:53 AM 63.0 °F 12.0 °F 14% 29.81 in 10.0 mi Calm Calm - N/A   Clear
9:53 AM 75.0 °F 15.1 °F 10% 29.79 in 10.0 mi South 8.1 mph - N/A   Clear
10:53 AM 78.1 °F 10.9 °F 8% 29.79 in 10.0 mi Calm Calm - N/A   Clear
11:53 AM 82.0 °F 10.9 °F 7% 29.77 in 10.0 mi South 11.5 mph 17.3 mph N/A   Clear
12:53 PM 84.0 °F 5.0 °F 5% 29.78 in 10.0 mi South 13.8 mph 20.7 mph N/A   Clear
1:53 PM 86.0 °F -8.0 °F 4% 29.71 in 10.0 mi West 16.1 mph 24.2 mph N/A   Clear
2:53 PM 84.9 °F -8.0 °F 4% 29.71 in 10.0 mi West 10.4 mph 19.6 mph N/A   Clear
3:53 PM 84.9 °F -7.1 °F 4% 29.73 in 10.0 mi SW 16.1 mph 26.5 mph N/A   Clear
4:53 PM 84.9 °F -2.9 °F 4% 29.73 in 10.0 mi West 16.1 mph 24.2 mph N/A   Clear
5:53 PM 84.0 °F 5.0 °F 5% 29.71 in 10.0 mi SW 9.2 mph 21.9 mph N/A   Clear
6:53 PM 82.9 °F 7.0 °F 6% 29.69 in 10.0 mi WSW 11.5 mph 19.6 mph N/A   Clear
7:53 PM 80.1 °F 7.0 °F 6% 29.65 in 10.0 mi WSW 13.8 mph 20.7 mph N/A   Clear
8:53 PM 75.0 °F 3.0 °F 6% 29.65 in 10.0 mi WSW 9.2 mph - N/A   Clear
9:53 PM 66.9 °F 1.9 °F 8% 29.65 in 10.0 mi SSW 3.5 mph - N/A   Clear
10:53 PM 66.0 °F 3.9 °F 9% 29.66 in 10.0 mi Calm Calm - N/A   Clear
11:53 PM 62.1 °F 5.0 °F 10% 29.67 in 10.0 mi Calm Calm - N/A   Clear